{"data":{"norad_id":69978,"intl_designator":"2026-159D","name":"STARLINK-38057","alt_names":[],"object_type":"PAYLOAD","status":"ACTIVE","operator":null,"country":"US","launch_date":"2026-07-11","launch_site_code":"AFWTR","launch_vehicle":null,"mission":null,"orbit_class":"UNKNOWN","rcs_meters":null,"size_class":null,"mass_kg":null,"dimensions":null,"purposes":["comms"],"wikipedia_slug":null,"has_3d_model":false,"image_url":null,"decayed_at":null,"tle_current":{"epoch":"2026-09-19T20:14:02.044608Z","epoch_age_seconds":74578,"freshness":"FRESH","line1":"1 69978U 26159D   26262.84307922  .00030103  00000+0  55245-3 0  9995","line2":"2 69978  97.2846 104.6265 0002226  90.2144 269.9362 15.49218466 12346","mean_motion":15.49218466,"eccentricity":0.0002226,"inclination_deg":97.2846,"raan_deg":104.6265,"arg_perigee_deg":90.2144,"mean_anomaly_deg":269.9362,"bstar":0.00055245,"rev_number":1234,"period_min":92.950092682409,"perigee_km":417.49803430953,"apogee_km":420.52412463452,"semimajor_km":6797.148079472,"source":"CELESTRAK","updated_at":"2026-09-20T09:00:44.328288Z"}}}